HC6AC-17 Weather Reports


Display with metric or nautical units.
time (UTC)temp
F
wind
direction
speed
MPH
gust
MPH
rain 1hr
in
rain 24hr
in
rain mn
in
humidity
%
barometer
mb
20260507112844 55 117 1.0 4.0 0.00 0.00 0.00 96 1019.0
20260507111844 52 117 2.0 4.0 0.00 0.00 0.00 96 1019.0
20260507110843 59 117 1.0 4.0 0.00 0.00 0.00 96 1019.0
20260507105842 56 117 2.0 4.0 0.00 0.00 0.00 96 1019.0
20260507104841 60 117 1.0 4.0 0.00 0.00 0.00 97 1019.0
20260507103841 57 117 2.0 4.0 0.00 0.00 0.00 97 1019.0
20260507102840 61 118 1.0 3.0 0.00 0.00 0.00 95 1019.0
20260507101839 58 118 1.0 3.0 0.00 0.00 0.00 95 1019.0
20260507100838 58 118 1.0 3.0 0.00 0.00 0.00 96 1019.0
20260507095838 55 118 1.0 3.0 0.00 0.00 0.00 96 1019.0
20260507094837 61 118 1.0 3.0 0.00 0.00 0.00 98 1019.0
20260507093836 58 116 1.0 1.0 0.00 0.00 0.00 98 1019.0
20260507092836 55 116 1.0 2.0 0.00 0.00 0.00 98 1019.0
20260507091835 59 116 1.0 1.0 0.00 0.00 0.00 98 1019.0
20260507090834 59 116 1.0 1.0 0.00 0.00 0.00 98 1019.0
20260507085834 56 116 1.0 2.0 0.00 0.00 0.00 98 1019.0
20260507084832 60 116 1.0 1.0 0.00 0.00 0.00 97 1019.0
20260507083832 57 116 1.0 2.0 0.00 0.00 0.00 97 1019.0
20260507082831 61 123 1.0 2.0 0.01 0.00 0.00 97 1019.0
20260507081830 58 123 1.0 2.0 0.01 0.00 0.00 97 1019.0
20260507080830 58 123 1.0 1.0 0.00 0.00 0.00 97 1019.0
20260507075828 55 123 1.0 2.0 0.01 0.00 0.00 97 1019.0
20260507074827 60 123 1.0 2.0 0.01 0.00 0.00 97 1019.0
20260507073826 60 133 1.0 3.0 0.01 0.00 0.00 98 1019.0
20260507072821 57 133 1.0 3.0 0.00 0.00 0.00 98 1020.0
20260507071820 54 133 1.0 3.0 0.01 0.00 0.00 98 1020.0
20260507070819 55 133 1.0 3.0 0.01 0.00 0.00 98 1020.0
20260507065819 58 133 1.0 3.0 0.01 0.00 0.00 98 1020.0
20260507064818 55 133 1.0 3.0 0.00 0.00 0.00 98 1020.0
20260507063817 52 133 1.0 3.0 0.01 0.00 0.00 98 1020.0
20260507062816 62 141 2.0 4.0 0.01 0.00 0.00 98 1020.0
20260507061816 59 141 1.0 4.0 0.00 0.00 0.00 98 1020.0
20260507060815 56 141 2.0 4.0 0.01 0.00 0.00 98 1020.0
20260507055814 57 141 2.0 4.0 0.01 0.00 0.00 97 1020.0
20260507054813 60 133 1.0 4.0 0.00 0.00 0.00 97 1020.0
20260507053813 57 133 1.0 4.0 0.01 0.00 0.00 97 1020.0
20260507052812 54 133 1.0 4.0 0.00 0.00 0.00 97 1021.0
20260507051811 51 133 2.0 4.0 0.01 0.00 0.00 97 1021.0
20260507050810 61 133 2.0 4.0 0.01 0.00 0.00 97 1021.0
20260507045810 58 133 1.0 4.0 0.01 0.00 0.00 97 1021.0
20260507044809 55 133 1.0 4.0 0.00 0.00 0.00 97 1021.0
20260507043808 52 133 2.0 4.0 0.01 0.00 0.00 97 1021.0
20260507042808 62 107 1.0 3.0 0.01 0.00 0.00 96 1022.0
20260507041807 59 107 1.0 3.0 0.00 0.00 0.00 97 1022.0
20260507040806 56 107 1.0 3.0 0.01 0.00 0.00 97 1022.0
20260507035806 59 107 1.0 3.0 0.00 0.00 0.00 97 1022.0
20260507034805 56 107 1.0 3.0 0.01 0.00 0.00 97 1022.0